GW3830 Weather Reports


time (UTC)temp
F
wind
direction
speed
knots
gust
knots
rain 1hr
in
rain 24hr
in
rain mn
in
humidity
%
barometer
mb
20260906105902 65 25 0.0 0.0 0.00 0.00 0.00 99 1014.1
20260906105358 65 36 0.0 0.0 0.00 0.00 0.00 99 1014.0
20260906104854 65 352 0.0 0.0 0.00 0.00 0.00 99 1014.1
20260906104352 65 5 0.0 0.0 0.00 0.00 0.00 99 1014.0
20260906103851 65 11 0.0 0.0 0.00 0.00 0.00 99 1014.1
20260906103349 65 335 0.0 0.0 0.00 0.00 0.00 99 1014.1
20260906102846 65 346 0.0 0.0 0.00 0.00 0.00 99 1013.8
20260906102344 65 343 0.0 0.0 0.00 0.00 0.00 99 1013.8
20260906101840 65 24 0.0 0.0 0.00 0.00 0.00 99 1013.9
20260906101335 65 0 0.0 0.0 0.00 0.00 0.00 99 1014.0
20260906100831 65 24 0.0 0.0 0.00 0.00 0.00 99 1013.8
20260906100329 65 16 0.0 0.0 0.00 0.00 0.00 99 1013.8
20260906095825 65 17 0.0 0.0 0.00 0.00 0.00 98 1013.8
20260906095320 65 355 0.0 0.0 0.00 0.00 0.00 99 1014.0
20260906094819 65 346 0.0 0.0 0.00 0.00 0.00 98 1013.8
20260906094314 65 8 0.0 0.0 0.00 0.00 0.00 98 1013.9
20260906093811 65 352 0.0 0.0 0.00 0.00 0.00 98 1013.9
20260906093307 66 340 0.0 0.0 0.00 0.00 0.00 98 1013.5
20260906092801 66 355 0.0 0.0 0.00 0.00 0.00 98 1013.3
20260906092255 66 324 0.0 0.0 0.00 0.00 0.00 98 1013.5
20260906091751 66 327 0.0 0.0 0.00 0.00 0.00 98 1013.5
20260906091247 66 313 0.0 0.0 0.00 0.00 0.00 98 1013.4
20260906090744 66 324 0.0 0.0 0.00 0.00 0.00 98 1013.4
20260906090242 66 0 0.0 0.0 0.00 0.00 0.00 98 1013.3
20260906085742 66 288 0.0 0.0 0.00 0.00 0.00 98 1013.4
20260906085241 66 284 0.0 0.0 0.00 0.00 0.00 98 1013.5
20260906084736 66 279 0.0 0.0 0.00 0.00 0.00 98 1013.5
20260906084231 66 357 0.0 0.0 0.00 0.00 0.00 97 1013.5
20260906083725 66 338 0.0 0.0 0.00 0.00 0.00 97 1013.5
20260906083220 67 308 0.0 0.0 0.00 0.00 0.00 97 1013.5
20260906082716 67 242 0.0 0.0 0.00 0.00 0.00 98 1013.7
20260906082210 67 234 0.0 0.0 0.00 0.00 0.00 98 1013.5
20260906081707 67 342 0.0 0.0 0.00 0.00 0.00 98 1013.7
20260906081156 66 342 0.0 0.0 0.00 0.00 0.00 98 1013.5
20260906080653 66 347 0.0 0.0 0.00 0.00 0.00 99 1013.8
20260906080149 66 353 0.0 0.0 0.00 0.00 0.00 98 1013.6
20260906075648 66 75 0.0 0.0 0.00 0.00 0.00 99 1013.5
20260906075142 66 58 0.0 0.0 0.00 0.00 0.00 99 1013.6
20260906074637 66 351 0.0 0.0 0.00 0.00 0.00 99 1013.4
20260906074136 65 354 0.0 0.0 0.00 0.00 0.00 98 1013.4
20260906073631 66 357 0.0 0.0 0.00 0.00 0.00 98 1013.5
20260906073127 66 51 0.0 0.0 0.00 0.00 0.00 98 1013.4
20260906072622 66 156 0.0 0.0 0.00 0.00 0.00 98 1013.5
20260906072118 66 114 0.0 0.0 0.00 0.00 0.00 98 1013.3
20260906071614 66 55 0.0 0.0 0.00 0.00 0.00 98 1013.5
20260906071109 66 74 0.0 0.0 0.00 0.00 0.00 98 1013.5
20260906070606 66 108 0.0 0.0 0.00 0.00 0.00 98 1013.6
20260906070101 66 109 0.0 0.0 0.00 0.00 0.00 98 1013.7
20260906065601 66 85 0.0 0.0 0.00 0.00 0.00 98 1013.6
20260906065056 66 100 0.0 0.0 0.00 0.00 0.00 98 1013.6
20260906064551 66 173 0.0 0.0 0.00 0.00 0.00 98 1013.9
20260906064046 66 176 0.0 0.0 0.00 0.00 0.00 98 1013.7
20260906063541 66 78 0.0 0.0 0.00 0.00 0.00 98 1013.8
20260906063037 66 51 0.0 0.0 0.00 0.00 0.00 98 1013.7
20260906062532 66 56 0.0 0.0 0.00 0.00 0.00 98 1013.8
20260906062026 66 81 0.0 0.0 0.00 0.00 0.00 97 1013.8
20260906061523 66 53 0.0 0.0 0.00 0.00 0.00 98 1013.7
20260906061022 66 53 0.0 0.0 0.00 0.00 0.00 98 1014.1
20260906060519 66 338 0.0 0.0 0.00 0.00 0.00 98 1014.0
20260906060015 66 358 0.0 0.0 0.00 0.00 0.00 97 1013.8
20260906055511 66 325 0.0 0.0 0.00 0.00 0.00 97 1014.0
20260906055006 66 338 0.0 0.0 0.00 0.00 0.00 97 1014.1
20260906054501 66 313 0.0 0.0 0.00 0.00 0.00 97 1014.2
20260906053956 66 342 0.0 0.0 0.00 0.00 0.00 97 1014.2
20260906053453 66 4 0.0 0.0 0.00 0.00 0.00 97 1014.2
20260906052948 66 351 0.0 0.0 0.00 0.00 0.00 97 1014.0
20260906052444 66 336 0.0 0.0 0.00 0.00 0.00 97 1013.9
20260906051941 66 30 0.0 0.0 0.00 0.00 0.00 97 1014.0
20260906051436 66 28 0.0 0.0 0.00 0.00 0.00 97 1014.0
20260906050932 66 35 0.0 0.0 0.00 0.00 0.00 97 1014.1
20260906050431 66 346 0.0 0.0 0.00 0.00 0.00 97 1014.1
20260906045930 66 355 0.0 0.0 0.00 0.00 0.00 97 1014.1
20260906045429 66 315 0.0 0.0 0.00 0.00 0.00 98 1013.9
20260906044926 66 353 0.9 4.3 0.00 0.00 0.00 98 1013.8
20260906044425 65 341 0.0 0.0 0.00 0.00 0.00 97 1014.0
20260906043916 66 308 0.0 0.0 0.00 0.00 0.00 97 1013.9
20260906043411 66 333 0.0 0.0 0.00 0.00 0.00 97 1013.9
20260906042907 66 317 0.0 0.0 0.00 0.00 0.00 97 1014.1
20260906042405 66 0 0.0 0.0 0.00 0.00 0.00 97 1013.9
20260906041900 66 342 0.0 0.0 0.00 0.00 0.00 97 1014.0
20260906041356 66 343 0.9 1.7 0.00 0.00 0.00 97 1014.2
20260906040850 66 359 0.0 0.0 0.00 0.00 0.00 97 1014.1
20260906040346 66 322 0.0 0.0 0.00 0.00 0.00 97 1014.3
20260906035841 66 343 0.0 0.0 0.00 0.10 0.10 97 1014.3
20260906035336 66 22 2.6 4.3 0.00 0.10 0.10 97 1014.6
20260906034832 66 352 0.0 0.0 0.00 0.10 0.10 97 1014.6
20260906034327 66 322 0.0 0.0 0.00 0.10 0.10 97 1014.7
20260906033823 66 346 0.0 0.0 0.00 0.10 0.10 97 1014.3
20260906033321 66 338 0.0 0.0 0.00 0.10 0.10 96 1014.8
20260906032818 66 332 0.0 0.0 0.00 0.10 0.10 96 1014.6
20260906032313 67 349 0.0 0.0 0.00 0.10 0.10 95 1014.7
20260906031809 67 332 0.0 0.0 0.00 0.10 0.10 94 1014.5
20260906031304 67 316 0.0 0.0 0.00 0.10 0.10 94 1014.7
20260906030804 68 14 0.0 0.0 0.00 0.10 0.10 93 1014.9
20260906030259 68 287 0.0 0.0 0.00 0.10 0.10 92 1014.6
20260906025759 68 300 0.0 0.0 0.00 0.10 0.10 92 1014.7
20260906025253 68 324 0.0 0.0 0.00 0.10 0.10 92 1014.7
20260906024752 68 289 0.0 0.0 0.00 0.10 0.10 91 1014.6
20260906024251 68 338 0.0 0.0 0.00 0.10 0.10 91 1014.6
20260906023741 68 54 0.0 0.0 0.00 0.10 0.10 91 1014.7
20260906023237 68 29 0.0 0.0 0.00 0.10 0.10 91 1014.9
20260906022732 69 330 0.0 0.0 0.00 0.10 0.10 91 1014.5
20260906022227 69 324 0.0 0.0 0.00 0.10 0.10 91 1015.0
20260906021723 69 314 0.0 0.0 0.00 0.10 0.10 90 1014.9
20260906021222 69 50 0.0 0.0 0.00 0.10 0.10 90 1014.9
20260906020717 69 293 0.0 0.0 0.00 0.10 0.10 90 1014.8
20260906020212 69 81 0.0 0.0 0.00 0.10 0.10 89 1015.0
20260906015712 69 349 0.0 0.0 0.00 0.10 0.10 89 1014.8
20260906015204 69 326 0.0 0.0 0.00 0.10 0.10 89 1014.6
20260906014659 69 358 0.0 0.0 0.00 0.10 0.10 89 1014.7
20260906014155 69 73 0.0 0.0 0.00 0.10 0.10 89 1014.8
20260906013651 69 21 0.0 0.0 0.00 0.10 0.10 89 1014.7
20260906013146 69 286 0.0 0.0 0.00 0.10 0.10 89 1014.7
20260906012645 69 30 0.0 0.0 0.00 0.10 0.10 90 1014.5
20260906012140 69 308 0.0 0.0 0.00 0.10 0.10 90 1014.6
20260906011636 69 347 0.0 0.0 0.00 0.10 0.10 90 1014.3
20260906011130 69 356 0.0 0.0 0.00 0.10 0.10 90 1014.2
20260906010625 69 305 0.0 0.0 0.00 0.10 0.10 89 1014.2
20260906010122 69 354 0.0 0.0 0.00 0.10 0.10 89 1014.0
20260906005616 69 312 0.0 0.0 0.00 0.10 0.10 89 1014.1
20260906005115 69 61 0.0 0.0 0.00 0.10 0.10 89 1014.2
20260906004614 69 303 0.0 0.0 0.00 0.10 0.10 89 1014.1
20260906004109 69 256 0.0 0.0 0.00 0.10 0.10 90 1014.1
20260906003605 69 7 0.0 0.0 0.00 0.10 0.10 90 1013.8
20260906003100 69 332 0.0 0.0 0.00 0.10 0.10 89 1013.8
20260906002554 69 341 0.0 0.0 0.00 0.10 0.10 89 1014.0
20260906002049 70 345 0.0 0.0 0.00 0.10 0.10 88 1013.9
20260906001544 70 316 0.0 0.0 0.00 0.10 0.10 87 1014.2
20260906001038 71 50 0.0 0.0 0.00 0.10 0.10 86 1014.0
20260906000535 71 325 0.0 0.0 0.00 0.10 0.10 86 1013.9
20260906000030 71 330 0.0 0.0 0.00 0.10 0.10 86 1014.1
20260905235523 71 346 0.0 0.0 0.00 0.10 0.10 86 1013.8
20260905235018 71 332 0.0 0.0 0.00 0.10 0.10 85 1013.9
20260905234514 71 66 0.0 0.0 0.00 0.10 0.10 85 1013.8
20260905234009 71 268 0.0 0.0 0.00 0.10 0.10 85 1013.9
20260905233504 71 313 0.0 0.0 0.00 0.10 0.10 84 1014.2
20260905233003 71 324 0.0 0.0 0.00 0.10 0.10 84 1014.0
20260905232459 71 342 0.0 0.0 0.00 0.10 0.10 84 1014.1
20260905231954 71 280 0.0 0.0 0.00 0.10 0.10 83 1013.9
20260905231449 71 322 0.0 0.0 0.00 0.10 0.10 83 1014.0
20260905230946 72 330 0.0 0.0 0.00 0.10 0.10 82 1014.2
20260905230439 72 74 0.0 0.0 0.00 0.10 0.10 81 1014.2
20260905225937 72 3 0.0 0.0 0.00 0.10 0.10 81 1014.2
20260905225433 72 10 0.0 0.0 0.00 0.10 0.10 81 1014.1
20260905224932 73 324 0.0 0.0 0.00 0.10 0.10 80 1014.3
20260905224428 73 335 0.0 0.0 0.00 0.10 0.10 79 1014.3
20260905223922 73 10 0.0 0.0 0.00 0.10 0.10 79 1014.5
20260905223420 73 329 0.0 0.0 0.00 0.10 0.10 78 1014.3
20260905222915 74 314 0.0 0.0 0.00 0.10 0.10 77 1014.2
20260905222414 74 10 0.0 0.0 0.00 0.10 0.10 78 1014.2
20260905221910 74 324 0.0 0.0 0.00 0.10 0.10 77 1014.1
20260905221406 74 94 0.0 0.0 0.00 0.10 0.10 76 1014.0
20260905220856 75 317 0.0 0.0 0.00 0.10 0.10 77 1013.9
20260905220352 75 32 0.0 0.0 0.00 0.10 0.10 76 1013.8
20260905215851 76 346 0.0 0.0 0.00 0.10 0.10 76 1013.8
20260905215347 76 330 0.0 0.0 0.00 0.10 0.10 76 1013.8
20260905214844 76 334 0.0 0.0 0.00 0.10 0.10 75 1013.8
20260905214339 75 180 0.0 0.0 0.00 0.10 0.10 76 1013.7
20260905213833 75 338 0.0 0.0 0.00 0.10 0.10 76 1013.6
20260905213330 75 291 0.0 0.0 0.00 0.10 0.10 76 1013.7
20260905212824 75 184 0.0 0.0 0.00 0.10 0.10 75 1013.7
20260905212318 76 63 0.0 0.0 0.00 0.10 0.10 75 1013.6
20260905211813 76 3 0.0 0.0 0.00 0.10 0.10 73 1013.6
20260905211308 76 351 0.0 0.0 0.00 0.10 0.10 74 1013.4
20260905210805 77 39 0.0 0.0 0.00 0.10 0.10 72 1013.4
20260905210304 77 343 0.0 0.0 0.00 0.10 0.10 72 1013.7
20260905205803 77 48 0.0 0.0 0.00 0.10 0.10 71 1013.6
20260905205258 78 26 0.0 0.0 0.00 0.10 0.10 70 1013.3
20260905204757 78 274 0.0 0.0 0.00 0.10 0.10 70 1013.3
20260905204254 78 124 0.0 0.9 0.00 0.10 0.10 69 1013.5
20260905203752 78 350 0.0 0.0 0.00 0.10 0.10 68 1013.5
20260905203248 79 347 0.0 0.0 0.00 0.10 0.10 68 1013.5
20260905202744 79 15 0.0 0.0 0.00 0.10 0.10 68 1013.5
20260905202238 78 2 0.0 0.0 0.00 0.10 0.10 68 1013.5
20260905201734 78 2 0.0 0.0 0.00 0.10 0.10 67 1013.5
20260905201229 78 185 0.9 4.3 0.00 0.10 0.10 65 1013.6
20260905200724 79 289 0.0 0.0 0.00 0.10 0.10 65 1013.4
20260905200220 78 200 0.0 0.0 0.00 0.10 0.10 65 1013.4
20260905195718 78 30 0.0 0.0 0.00 0.10 0.10 67 1013.3
20260905195212 78 181 0.0 0.0 0.00 0.10 0.10 69 1013.5
20260905194708 78 352 0.0 0.0 0.00 0.10 0.10 67 1013.7
20260905194208 78 332 0.0 0.0 0.00 0.10 0.10 69 1013.6
20260905193702 78 321 0.0 0.0 0.00 0.10 0.10 68 1013.8
20260905193157 78 321 0.0 0.0 0.00 0.10 0.10 69 1014.1
20260905192653 78 341 0.0 0.0 0.00 0.10 0.10 67 1013.8
20260905192149 78 232 0.0 0.0 0.00 0.10 0.10 69 1014.0
20260905191648 78 127 0.0 0.0 0.00 0.10 0.10 70 1014.0
20260905191145 79 48 0.0 0.0 0.00 0.10 0.10 69 1014.1
20260905190639 78 257 0.0 0.0 0.00 0.10 0.10 71 1014.0
20260905190138 78 17 0.0 0.0 0.00 0.10 0.10 75 1014.3
20260905185637 78 264 0.0 0.0 0.00 0.10 0.10 73 1014.3
20260905185132 77 319 0.0 0.9 0.00 0.10 0.10 73 1014.5
20260905184626 78 288 0.0 0.0 0.00 0.10 0.10 72 1014.7
20260905184125 78 343 0.0 0.0 0.00 0.10 0.10 72 1014.7
20260905183624 78 351 0.0 0.0 0.00 0.10 0.10 71 1014.6
20260905183120 78 60 0.0 0.0 0.00 0.10 0.10 71 1014.6
20260905182614 78 325 0.0 0.0 0.00 0.10 0.10 71 1014.6
20260905182113 77 268 0.0 0.0 0.00 0.10 0.10 71 1014.7
20260905181608 78 323 0.0 0.0 0.00 0.10 0.10 69 1014.9
20260905181107 77 46 0.0 2.6 0.00 0.10 0.10 72 1014.6
20260905180602 78 349 0.0 0.0 0.00 0.10 0.10 71 1014.6
20260905180058 78 285 0.0 0.0 0.00 0.10 0.10 77 1014.7
20260905175556 78 346 0.0 0.0 0.00 0.10 0.10 75 1014.8
20260905175052 78 353 0.0 0.0 0.00 0.10 0.10 75 1015.0
20260905174548 77 199 0.0 0.0 0.00 0.10 0.10 77 1015.1
20260905174043 77 246 0.0 0.0 0.00 0.10 0.10 79 1015.4
20260905173540 76 105 0.0 0.0 0.00 0.10 0.10 78 1015.0
20260905173035 75 22 0.0 0.0 0.00 0.10 0.10 81 1015.3
20260905172533 74 36 0.0 0.0 0.00 0.10 0.10 83 1015.4
20260905172029 74 13 0.0 0.0 0.00 0.10 0.10 83 1015.3
20260905171525 73 329 0.0 0.0 0.00 0.10 0.10 85 1015.5
20260905171021 72 38 0.0 0.0 0.00 0.10 0.10 86 1015.3
20260905170518 73 359 0.0 0.0 0.00 0.10 0.10 84 1015.3
20260905170012 73 78 0.0 0.0 0.00 0.10 0.10 84 1015.2
20260905165507 73 260 0.0 0.0 0.00 0.10 0.10 85 1015.3
20260905164956 74 75 0.0 0.0 0.00 0.10 0.10 84 1015.3
20260905164455 74 292 0.0 0.0 0.00 0.10 0.10 83 1015.1
20260905163950 73 309 0.0 0.0 0.00 0.10 0.10 84 1015.3
20260905163447 72 88 0.0 0.0 0.00 0.10 0.10 88 1015.0
20260905162943 71 171 0.0 0.0 0.00 0.10 0.10 90 1015.0
20260905162438 70 178 0.0 0.0 0.00 0.10 0.10 92 1014.9
20260905161933 69 197 0.0 0.0 0.00 0.10 0.10 93 1014.9
20260905161432 69 193 0.0 0.0 0.00 0.10 0.10 94 1014.9
20260905160930 69 165 0.0 0.0 0.00 0.10 0.10 94 1014.9
20260905160424 69 203 0.0 0.0 0.00 0.10 0.10 93 1015.3
20260905155918 69 193 0.0 0.0 0.00 0.10 0.10 92 1015.4
20260905155418 69 173 0.0 0.0 0.00 0.10 0.10 92 1015.9
20260905154917 69 197 0.0 0.0 0.00 0.10 0.10 92 1015.9
20260905154413 70 242 0.0 0.0 0.00 0.10 0.10 88 1015.9
20260905153909 70 32 0.0 0.0 0.00 0.10 0.10 89 1016.1
20260905153405 70 354 0.0 0.0 0.00 0.10 0.10 89 1016.4
20260905152904 69 350 0.0 0.0 0.00 0.10 0.10 89 1016.5
20260905152403 70 359 0.0 0.0 0.00 0.10 0.10 88 1016.3
20260905151859 69 188 0.0 0.0 0.00 0.10 0.10 91 1016.5
20260905151354 68 74 3.5 6.1 0.00 0.10 0.10 92 1016.5
20260905150849 68 36 0.0 0.0 0.00 0.10 0.10 93 1016.6
20260905150343 69 352 1.7 4.3 0.00 0.10 0.10 93 1016.6
20260905145840 69 342 0.0 0.0 0.00 0.10 0.10 94 1016.9
20260905145334 68 11 0.0 0.0 0.00 0.10 0.10 94 1016.8
20260905144834 68 342 0.0 0.0 0.00 0.10 0.10 96 1016.5
20260905144329 67 309 0.0 0.0 0.00 0.10 0.10 97 1016.8
20260905143828 66 348 0.0 0.0 0.00 0.10 0.10 97 1016.4
20260905143322 66 329 0.0 0.0 0.00 0.10 0.10 97 1016.3
20260905142822 66 27 0.0 0.0 0.00 0.10 0.10 96 1016.4
20260905142315 66 8 0.0 0.0 0.00 0.10 0.10 96 1016.4
20260905141812 66 17 0.0 0.0 0.28 0.10 0.10 96 1016.8
20260905141307 66 3 0.9 6.1 0.54 0.10 0.10 96 1016.3
20260905140803 66 4 7.0 8.7 0.54 0.09 0.09 94 1016.1
20260905140302 67 104 3.5 7.8 0.12 0.02 0.02 94 1016.9
20260905135801 68 3 5.2 8.7 0.00 0.00 0.00 93 1016.5
20260905135258 68 259 6.1 11.3 0.00 0.00 0.00 92 1016.6
20260905134758 70 324 5.2 8.7 0.00 0.00 0.00 91 1016.9
20260905134257 73 348 0.9 7.0 0.00 0.00 0.00 87 1016.2
20260905133751 74 315 0.0 0.0 0.00 0.00 0.00 84 1015.5
20260905133247 74 352 3.5 6.1 0.00 0.00 0.00 84 1015.5
20260905132746 74 303 2.6 6.1 0.00 0.00 0.00 84 1015.7
20260905132241 74 299 0.9 5.2 0.00 0.00 0.00 83 1015.4
20260905131736 74 303 4.3 9.6 0.00 0.00 0.00 83 1015.4
20260905131231 75 276 0.0 0.0 0.00 0.00 0.00 83 1015.5
20260905130726 75 272 0.0 0.0 0.00 0.00 0.00 82 1015.3
20260905130225 75 345 0.0 0.0 0.00 0.00 0.00 83 1015.4
20260905125720 75 351 0.0 0.0 0.00 0.00 0.00 83 1015.4
20260905125215 75 320 0.0 0.0 0.00 0.00 0.00 81 1015.2
20260905124712 75 311 0.0 0.0 0.00 0.00 0.00 82 1015.1
20260905124208 75 94 0.0 0.0 0.00 0.00 0.00 81 1015.2
20260905123703 74 297 0.0 0.0 0.00 0.00 0.00 83 1015.4
20260905123200 73 57 0.9 5.2 0.00 0.00 0.00 85 1015.4
20260905122659 73 234 0.0 1.7 0.00 0.00 0.00 85 1015.2
20260905122154 73 312 0.9 2.6 0.00 0.00 0.00 85 1015.3
20260905121648 73 327 0.0 0.0 0.00 0.00 0.00 85 1015.2
20260905121144 73 322 0.0 0.0 0.00 0.00 0.00 84 1015.4
20260905120643 73 268 0.0 0.0 0.00 0.00 0.00 84 1015.4
20260905120138 72 116 0.0 0.0 0.00 0.00 0.00 84 1015.2
20260905115632 72 320 0.0 0.0 0.00 0.00 0.00 86 1015.2
20260905115127 72 322 0.0 0.9 0.00 0.00 0.00 86 1015.2
20260905114626 72 219 0.0 0.0 0.00 0.00 0.00 86 1015.0
20260905114125 72 34 0.0 0.0 0.00 0.00 0.00 85 1015.3
20260905113620 72 333 0.0 0.0 0.00 0.00 0.00 86 1015.0
20260905113115 72 358 0.0 0.0 0.00 0.00 0.00 86 1014.9
20260905112610 72 18 0.0 0.0 0.00 0.00 0.00 86 1014.9
20260905112105 72 200 0.0 0.0 0.00 0.00 0.00 86 1015.1
20260905111555 72 327 0.0 0.0 0.00 0.00 0.00 86 1015.2
20260905111054 72 325 0.0 0.0 0.00 0.00 0.00 86 1014.8
20260905110553 72 293 0.0 0.9 0.00 0.00 0.00 86 1015.1
20260905110048 72 160 0.0 0.9 0.00 0.00 0.00 85 1015.0